DEORBITSAIL

Last updated on Fri Feb 16 2018 09:56:27 GMT+0000 (Coordinated Universal Time)

1 40719U 15032E 18046.80119311 .00000440 00000-0 70694-4 0 9993 2 40719 97.9587 302.2042 0017829 79.3461 280.9755 14.76330387140269
UTC large
Height (km)
Speed (km/s)
/
Latitude / Longitude
Inclination (degrees)
Orbital Period (minutes)
Azimuth
Elevation
Range (km)
Doppler Factor

Next 0 passes for location: London (51.5072 / 0.1276)

Sorry there are no passes over London.
DEORBITSAIL